Zurück zum Katalog

SL-8 DEB

AktivLEO
NORAD 21170·DEBRIS·🇷🇺 Russia

Gestartet Feb 12, 1991 von Plesetsk Cosmodrome

Loading…

Nächste Überflüge (nächste 24 Stunden)

TLE

AktuellSource: Space-Track

Epoche: Sep 14, 2026, 14:15 UTC

1 21170U 91009AH  26257.59395052  .00000191  00000-0  20949-2 0  9997
2 21170  74.1159   2.4053 0151906 322.1712  50.6034 12.12969933573158

Verfolge SL-8 DEB in Echtzeit mit AllMySat

Download on the App Store